Regional Weather Roundup
Issued by NWS

Home | Current Version | Previous Version | Graphics & Text | Print | Product List | Glossary Off
Versions: 1 2 3 4 5 6 7 8 9 10 11 12 13 14 15 16 17 18 19 20 21 22 23 24 25 26 27 28 29 30 31 32 33 34 35 36 37 38 39 40 41 42 43 44 45 46 47 48 49 50

787
ASUS43 KTOP 070759
RWRKS

WEATHER ROUNDUP FOR KANSAS
NATIONAL WEATHER SERVICE GOODLAND KS
200 AM CST WED DEC 07 2016

NOTE:  "FAIR" INDICATES FEW OR NO CLOUDS BELOW 12,000 FEET WITH NO
SIGNIFICANT WEATHER AND/OR OBSTRUCTIONS TO VISIBILITY.

KSZ001>006-013>018-027>032-041>047-070900-
NORTHWEST KANSAS

CITY           SKY/WX    TMP DP  RH WIND       PRES   REMARKS
GOODLAND       CLOUDY    23   3  42 E6        29.95F
HAYS           CLOUDY    26  20  77 E6        30.09F
HILL CITY      CLOUDY    25  12  58 E9        30.10R
RUSSELL        CLOUDY    26  18  71 SW3       30.10R
$$

KSZ061>065-074>080-084>089-070900-
SOUTHWEST KANSAS

CITY           SKY/WX    TMP DP  RH WIND       PRES   REMARKS
DODGE CITY     CLEAR     20  13  74 E7        30.03F
ELKHART          N/A     15   1  53 SE10        N/A  WCI   2
GARDEN CITY    CLEAR     22   9  57 SE14      29.98F WCI   9
GREAT BEND     CLOUDY    29  22  75 E5        30.10F
LIBERAL        CLOUDY    25  10  54 SE10      29.98R WCI  15
$$

KSZ066>073-081>083-090>101-070900-
SOUTHEAST KANSAS

CITY           SKY/WX    TMP DP  RH WIND       PRES   REMARKS
CHANUTE        CLOUDY    32  24  72 N3        30.17S
COFFEYVILLE    CLOUDY    32  23  69 N3        30.17R
HUTCHINSON     CLOUDY    30  23  75 E5        30.13S
MEDICINE LODGE   N/A     33  17  51 E7        30.09F
NEWTON         CLOUDY    30  20  66 S3        30.14R
PARSONS        CLOUDY    32  22  66 N5        30.17S
WICHITA INTL   CLOUDY    34  17  50 NE6       30.12F
WICHITA JABRA  CLOUDY    31  22  69 NE5       30.12S
WINFIELD       CLOUDY    34  17  50 NE7       30.13F
$$

KSZ007>012-019>026-033>040-048>060-102>105-070900-
NORTHEAST KANSAS

CITY           SKY/WX    TMP DP  RH WIND       PRES   REMARKS
CONCORDIA      CLOUDY    27  13  55 NE7       30.16S
EMPORIA        CLOUDY    32  19  58 N8        30.15R
LAWRENCE       CLOUDY    31  17  56 N15       30.17  WCI  20
MANHATTAN      CLOUDY    31  17  56 N6        30.18R
OLATHE IND     CLOUDY    32  13  45 N8        30.18R
OLATHE EXE     CLOUDY    33  10  38 N9        30.17R
SALINA         CLOUDY    33  20  58 CALM      30.15R
TOPEKA BILLARD CLOUDY    31  13  47 N13       30.18S WCI  21
TOPEKA FORBES  CLOUDY    32  14  47 N6        30.19R
$$




USA.gov is the U.S. government's official web portal to all federal, state and local government web resources and services.